Time,TemperatureF,DewpointF,PressureIn,WindDirection,WindDirectionDegrees,WindSpeedMPH,WindSpeedGustMPH,Humidity,HourlyPrecipIn,Conditions,Clouds,dailyrainin,SolarRadiationWatts/m^2,SoftwareType,DateUTC
2013-04-17 00:07:00,44.9,41.0,30.04,WSW,238,0.0,14.0,87,0.12,,,0.00,0,weatherlink.com 1.10,2013-04-17 04:07:00,
2013-04-17 00:22:00,43.8,41.0,30.04,NW,314,0.0,14.0,89,0.10,,,0.01,0,weatherlink.com 1.10,2013-04-17 04:22:00,
2013-04-17 00:37:00,42.8,40.0,30.04,WNW,294,4.0,15.0,88,0.08,,,0.01,0,weatherlink.com 1.10,2013-04-17 04:37:00,
2013-04-17 00:52:00,42.8,40.0,30.05,NNW,336,1.0,19.0,89,0.03,,,0.01,0,weatherlink.com 1.10,2013-04-17 04:52:00,
2013-04-17 01:07:00,42.4,40.0,30.05,WNW,300,1.0,21.0,90,0.01,,,0.01,0,weatherlink.com 1.10,2013-04-17 05:07:00,
2013-04-17 01:22:00,42.4,40.0,30.06,SSW,196,0.0,13.0,91,0.00,,,0.01,0,weatherlink.com 1.10,2013-04-17 05:22:00,
2013-04-17 01:37:00,42.4,40.0,30.07,NW,318,2.0,10.0,92,0.00,,,0.01,0,weatherlink.com 1.10,2013-04-17 05:37:00,
2013-04-17 01:52:00,42.2,40.0,30.07,WNW,295,2.0,13.0,92,0.00,,,0.01,0,weatherlink.com 1.10,2013-04-17 05:52:00,
2013-04-17 02:07:00,41.8,40.0,30.07,NNW,327,2.0,10.0,92,0.00,,,0.01,0,weatherlink.com 1.10,2013-04-17 06:07:00,
2013-04-17 02:22:00,41.2,39.0,30.07,NW,309,0.0,9.0,90,0.00,,,0.01,0,weatherlink.com 1.10,2013-04-17 06:22:00,
2013-04-17 02:37:00,40.6,38.0,30.07,NW,308,9.0,9.0,90,0.00,,,0.01,0,weatherlink.com 1.10,2013-04-17 06:37:00,
2013-04-17 02:52:00,40.5,38.0,30.07,WNW,301,2.0,8.0,90,0.00,,,0.01,0,weatherlink.com 1.10,2013-04-17 06:52:00,
2013-04-17 03:07:00,40.5,38.0,30.06,WSW,254,2.0,10.0,89,0.00,,,0.01,0,weatherlink.com 1.10,2013-04-17 07:07:00,
2013-04-17 03:22:00,40.5,38.0,30.07,West,263,1.0,9.0,89,0.00,,,0.01,0,weatherlink.com 1.10,2013-04-17 07:22:00,
2013-04-17 03:37:00,40.0,37.0,30.07,NW,306,0.0,11.0,88,0.00,,,0.01,0,weatherlink.com 1.10,2013-04-17 07:37:00,
2013-04-17 03:52:00,40.0,37.0,30.08,NW,311,0.0,8.0,88,0.00,,,0.01,0,weatherlink.com 1.10,2013-04-17 07:52:00,
2013-04-17 04:07:00,40.0,37.0,30.08,NW,319,0.0,7.0,89,0.00,,,0.01,0,weatherlink.com 1.10,2013-04-17 08:07:00,
2013-04-17 04:22:00,40.2,37.0,30.08,NW,318,2.0,10.0,88,0.00,,,0.01,0,weatherlink.com 1.10,2013-04-17 08:22:00,
2013-04-17 04:37:00,39.8,37.0,30.08,NW,313,0.0,7.0,88,0.00,,,0.01,0,weatherlink.com 1.10,2013-04-17 08:37:00,
2013-04-17 04:52:00,39.3,36.0,30.09,NW,321,1.0,8.0,88,0.00,,,0.01,0,weatherlink.com 1.10,2013-04-17 08:52:00,
2013-04-17 05:07:00,39.1,36.0,30.09,NW,315,0.0,6.0,88,0.00,,,0.01,0,weatherlink.com 1.10,2013-04-17 09:07:00,
2013-04-17 05:23:00,39.0,36.0,30.10,NW,313,0.0,6.0,87,0.00,,,0.01,0,weatherlink.com 1.10,2013-04-17 09:23:00,
2013-04-17 05:38:00,38.4,35.0,30.10,North,360,0.0,5.0,87,0.00,,,0.01,0,weatherlink.com 1.10,2013-04-17 09:38:00,
2013-04-17 05:53:00,37.8,35.0,30.10,NW,314,5.0,6.0,88,0.00,,,0.01,0,weatherlink.com 1.10,2013-04-17 09:53:00,
2013-04-17 06:08:00,37.5,34.0,30.10,NW,309,0.0,6.0,88,0.00,,,0.01,0,weatherlink.com 1.10,2013-04-17 10:08:00,
2013-04-17 06:22:00,36.7,34.0,30.10,WNW,303,5.0,9.0,90,0.00,,,0.01,12,weatherlink.com 1.10,2013-04-17 10:22:00,
2013-04-17 06:37:00,36.8,34.0,30.11,WNW,296,0.0,12.0,89,0.00,,,0.01,33,weatherlink.com 1.10,2013-04-17 10:37:00,
2013-04-17 06:53:00,37.3,34.0,30.11,NW,311,0.0,15.0,88,0.00,,,0.01,70,weatherlink.com 1.10,2013-04-17 10:53:00,
2013-04-17 07:08:00,37.8,34.0,30.12,WNW,290,4.0,13.0,87,0.00,,,0.01,118,weatherlink.com 1.10,2013-04-17 11:08:00,
2013-04-17 07:23:00,38.5,34.0,30.12,NNW,332,2.0,19.0,84,0.00,,,0.01,176,weatherlink.com 1.10,2013-04-17 11:23:00,
2013-04-17 07:38:00,39.3,35.0,30.14,NNW,333,0.0,18.0,83,0.00,,,0.01,236,weatherlink.com 1.10,2013-04-17 11:38:00,
2013-04-17 07:53:00,40.0,34.0,30.14,NW,317,0.0,10.0,79,0.00,,,0.01,292,weatherlink.com 1.10,2013-04-17 11:53:00,
2013-04-17 08:08:00,40.5,33.0,30.14,NNE,22,4.0,16.0,74,0.00,,,0.01,341,weatherlink.com 1.10,2013-04-17 12:08:00,
2013-04-17 08:24:00,41.1,32.0,30.15,North,355,0.0,10.0,71,0.00,,,0.01,396,weatherlink.com 1.10,2013-04-17 12:24:00,
2013-04-17 08:39:00,41.6,31.0,30.15,WNW,297,9.0,13.0,65,0.00,,,0.01,450,weatherlink.com 1.10,2013-04-17 12:39:00,
2013-04-17 08:54:00,42.0,32.0,30.16,North,355,7.0,14.0,67,0.00,,,0.01,501,weatherlink.com 1.10,2013-04-17 12:54:00,
2013-04-17 09:09:00,42.3,32.0,30.15,NW,313,1.0,13.0,67,0.00,,,0.01,552,weatherlink.com 1.10,2013-04-17 13:09:00,
2013-04-17 09:25:00,42.9,32.0,30.15,NE,38,7.0,13.0,66,0.00,,,0.01,601,weatherlink.com 1.10,2013-04-17 13:25:00,
2013-04-17 09:39:00,43.5,33.0,30.15,North,5,0.0,12.0,67,0.00,,,0.01,642,weatherlink.com 1.10,2013-04-17 13:39:00,
2013-04-17 09:56:00,44.3,33.0,30.16,North,5,5.0,13.0,65,0.00,,,0.01,693,weatherlink.com 1.10,2013-04-17 13:56:00,
2013-04-17 10:11:00,44.6,32.0,30.16,NNW,336,6.0,15.0,62,0.00,,,0.01,731,weatherlink.com 1.10,2013-04-17 14:11:00,
2013-04-17 10:25:00,44.6,33.0,30.16,NNE,14,8.0,12.0,65,0.00,,,0.01,766,weatherlink.com 1.10,2013-04-17 14:25:00,
2013-04-17 10:41:00,45.2,33.0,30.17,WNW,299,1.0,11.0,62,0.00,,,0.01,800,weatherlink.com 1.10,2013-04-17 14:41:00,
2013-04-17 10:56:00,45.8,34.0,30.17,SSE,159,0.0,9.0,64,0.00,,,0.01,830,weatherlink.com 1.10,2013-04-17 14:56:00,
2013-04-17 11:11:00,46.1,32.0,30.17,NW,315,5.0,12.0,58,0.00,,,0.01,856,weatherlink.com 1.10,2013-04-17 15:11:00,
2013-04-17 11:26:00,47.5,32.0,30.17,NW,311,7.0,12.0,56,0.00,,,0.01,877,weatherlink.com 1.10,2013-04-17 15:26:00,
2013-04-17 11:41:00,47.2,32.0,30.17,NNE,26,7.0,15.0,56,0.00,,,0.01,896,weatherlink.com 1.10,2013-04-17 15:41:00,
2013-04-17 11:57:00,47.9,33.0,30.17,West,269,1.0,14.0,56,0.00,,,0.01,912,weatherlink.com 1.10,2013-04-17 15:57:00,
2013-04-17 12:11:00,47.9,33.0,30.18,NNE,30,2.0,12.0,56,0.00,,,0.01,925,weatherlink.com 1.10,2013-04-17 16:11:00,
2013-04-17 12:27:00,48.0,32.0,30.18,NNE,20,2.0,15.0,55,0.00,,,0.01,935,weatherlink.com 1.10,2013-04-17 16:27:00,
2013-04-17 12:42:00,49.1,34.0,30.18,NNW,339,7.0,11.0,56,0.00,,,0.01,949,weatherlink.com 1.10,2013-04-17 16:42:00,
2013-04-17 12:57:00,48.9,33.0,30.17,NW,314,6.0,16.0,55,0.00,,,0.01,953,weatherlink.com 1.10,2013-04-17 16:57:00,
2013-04-17 13:12:00,49.6,33.0,30.17,NW,310,6.0,12.0,53,0.00,,,0.01,965,weatherlink.com 1.10,2013-04-17 17:12:00,
2013-04-17 13:27:00,49.7,29.0,30.17,NW,312,3.0,18.0,46,0.00,,,0.01,969,weatherlink.com 1.10,2013-04-17 17:27:00,
2013-04-17 13:42:00,50.6,32.0,30.17,NNW,329,6.0,13.0,50,0.00,,,0.01,976,weatherlink.com 1.10,2013-04-17 17:42:00,
2013-04-17 13:58:00,50.8,32.0,30.18,WNW,302,7.0,14.0,48,0.00,,,0.01,974,weatherlink.com 1.10,2013-04-17 17:58:00,
2013-04-17 14:13:00,50.8,31.0,30.18,NNW,329,7.0,15.0,47,0.00,,,0.01,962,weatherlink.com 1.10,2013-04-17 18:13:00,
2013-04-17 14:28:00,51.0,31.0,30.19,NNW,330,8.0,12.0,47,0.00,,,0.01,932,weatherlink.com 1.10,2013-04-17 18:28:00,
2013-04-17 14:43:00,50.9,32.0,30.18,West,281,1.0,15.0,48,0.00,,,0.01,889,weatherlink.com 1.10,2013-04-17 18:43:00,
2013-04-17 14:58:00,51.3,32.0,30.19,WNW,284,4.0,13.0,48,0.00,,,0.01,844,weatherlink.com 1.10,2013-04-17 18:58:00,
2013-04-17 15:13:00,51.5,32.0,30.19,NW,323,2.0,12.0,47,0.00,,,0.01,793,weatherlink.com 1.10,2013-04-17 19:13:00,
2013-04-17 15:29:00,51.5,31.0,30.19,NNW,333,2.0,15.0,46,0.00,,,0.01,751,weatherlink.com 1.10,2013-04-17 19:29:00,
2013-04-17 15:44:00,52.0,31.0,30.19,NNW,333,9.0,19.0,45,0.00,,,0.01,705,weatherlink.com 1.10,2013-04-17 19:44:00,
2013-04-17 15:59:00,51.9,31.0,30.20,NW,306,4.0,15.0,45,0.00,,,0.01,657,weatherlink.com 1.10,2013-04-17 19:59:00,
2013-04-17 16:14:00,51.8,31.0,30.19,North,360,8.0,19.0,46,0.00,,,0.01,612,weatherlink.com 1.10,2013-04-17 20:14:00,
2013-04-17 16:29:00,51.7,29.0,30.20,NNE,26,5.0,13.0,42,0.00,,,0.01,564,weatherlink.com 1.10,2013-04-17 20:29:00,
2013-04-17 16:44:00,51.6,31.0,30.21,NW,307,1.0,13.0,46,0.00,,,0.01,519,weatherlink.com 1.10,2013-04-17 20:44:00,
2013-04-17 16:59:00,51.9,30.0,30.21,WNW,299,6.0,10.0,44,0.00,,,0.01,478,weatherlink.com 1.10,2013-04-17 20:59:00,
2013-04-17 17:14:00,51.8,31.0,30.22,North,355,4.0,10.0,46,0.00,,,0.01,439,weatherlink.com 1.10,2013-04-17 21:14:00,
2013-04-17 17:31:00,51.2,30.0,30.22,NW,313,0.0,12.0,44,0.00,,,0.01,290,weatherlink.com 1.10,2013-04-17 21:31:00,
2013-04-17 17:46:00,50.8,29.0,30.23,North,360,2.0,9.0,44,0.00,,,0.01,214,weatherlink.com 1.10,2013-04-17 21:46:00,
2013-04-17 18:02:00,49.8,30.0,30.24,North,355,2.0,12.0,46,0.00,,,0.01,113,weatherlink.com 1.10,2013-04-17 22:02:00,
2013-04-17 18:16:00,49.2,30.0,30.23,NW,312,4.0,9.0,48,0.00,,,0.01,120,weatherlink.com 1.10,2013-04-17 22:16:00,
2013-04-17 18:31:00,48.8,30.0,30.25,NNW,342,1.0,10.0,48,0.00,,,0.01,69,weatherlink.com 1.10,2013-04-17 22:31:00,
2013-04-17 18:46:00,48.1,30.0,30.24,NW,313,0.0,9.0,49,0.00,,,0.01,33,weatherlink.com 1.10,2013-04-17 22:46:00,
2013-04-17 19:03:00,47.1,30.0,30.24,WNW,295,1.0,7.0,51,0.00,,,0.01,19,weatherlink.com 1.10,2013-04-17 23:03:00,
2013-04-17 19:16:00,45.9,30.0,30.24,WNW,303,0.0,5.0,54,0.00,,,0.01,12,weatherlink.com 1.10,2013-04-17 23:16:00,
2013-04-17 19:31:00,45.0,30.0,30.25,WNW,301,0.0,6.0,55,0.00,,,0.01,0,weatherlink.com 1.10,2013-04-17 23:31:00,
2013-04-17 19:46:00,44.3,30.0,30.25,WNW,301,0.0,1.0,57,0.00,,,0.01,0,weatherlink.com 1.10,2013-04-17 23:46:00,
2013-04-17 20:03:00,43.9,29.0,30.26,WNW,301,0.0,1.0,57,0.00,,,0.01,0,weatherlink.com 1.10,2013-04-18 00:03:00,
2013-04-17 20:17:00,42.9,29.0,30.27,WNW,301,0.0,1.0,59,0.00,,,0.01,0,weatherlink.com 1.10,2013-04-18 00:17:00,
2013-04-17 20:32:00,42.4,29.0,30.26,WNW,301,0.0,1.0,59,0.00,,,0.01,0,weatherlink.com 1.10,2013-04-18 00:32:00,
2013-04-17 20:47:00,42.2,29.0,30.25,WNW,301,0.0,1.0,60,0.00,,,0.01,0,weatherlink.com 1.10,2013-04-18 00:47:00,
2013-04-17 21:02:00,41.9,29.0,30.27,WNW,301,0.0,1.0,60,0.00,,,0.01,0,weatherlink.com 1.10,2013-04-18 01:02:00,
2013-04-17 21:17:00,42.0,28.0,30.27,WNW,301,0.0,1.0,59,0.00,,,0.01,0,weatherlink.com 1.10,2013-04-18 01:17:00,
2013-04-17 21:32:00,41.4,28.0,30.28,WNW,301,0.0,1.0,59,0.00,,,0.01,0,weatherlink.com 1.10,2013-04-18 01:32:00,
2013-04-17 21:47:00,40.6,28.0,30.28,WNW,301,0.0,1.0,61,0.00,,,0.01,0,weatherlink.com 1.10,2013-04-18 01:47:00,
2013-04-17 22:02:00,41.1,28.0,30.28,WNW,301,0.0,1.0,60,0.00,,,0.01,0,weatherlink.com 1.10,2013-04-18 02:02:00,
2013-04-17 22:17:00,40.5,28.0,30.28,WNW,301,0.0,1.0,61,0.00,,,0.01,0,weatherlink.com 1.10,2013-04-18 02:17:00,
2013-04-17 22:32:00,40.2,28.0,30.27,WNW,301,0.0,1.0,61,0.00,,,0.01,0,weatherlink.com 1.10,2013-04-18 02:32:00,
2013-04-17 22:47:00,39.8,28.0,30.27,WNW,301,0.0,1.0,62,0.00,,,0.01,0,weatherlink.com 1.10,2013-04-18 02:47:00,
2013-04-17 23:02:00,39.9,27.0,30.28,WNW,301,0.0,1.0,61,0.00,,,0.01,0,weatherlink.com 1.10,2013-04-18 03:02:00,
2013-04-17 23:17:00,39.3,27.0,30.29,WNW,301,0.0,1.0,62,0.00,,,0.01,0,weatherlink.com 1.10,2013-04-18 03:17:00,
2013-04-17 23:32:00,39.5,26.0,30.30,WNW,301,0.0,4.0,60,0.00,,,0.01,0,weatherlink.com 1.10,2013-04-18 03:32:00,
2013-04-17 23:47:00,39.2,26.0,30.31,WNW,301,0.0,1.0,59,0.00,,,0.01,0,weatherlink.com 1.10,2013-04-18 03:47:00,